This is the latest recevied weather packets stored in our database for station/object KE0PRS. If no packets are shown the sender has not sent any weather packets the latest 10 day(s).
| Time | Temp. | Humidity | Pressure | Rain* | Wind** | Luminosity | Snow |
|---|---|---|---|---|---|---|---|
| 1777249823 | 14.44° C | 88% | 1003.2 hPa | 0 mm | - | 24 W/m² | - |
| 1777249519 | 14.44° C | 88% | 1003.1 hPa | 0 mm | - | 17 W/m² | - |
| 1777249216 | 14.44° C | 88% | 1003 hPa | 0 mm | - | 13 W/m² | - |
| 1777248914 | 14.44° C | 87% | 1003 hPa | 0 mm | - | 31 W/m² | - |
| 1777248609 | 15° C | 87% | 1003 hPa | 0 mm | - | 20 W/m² | - |
| 1777248307 | 14.44° C | 87% | 1003.2 hPa | 0 mm | - | 26 W/m² | - |
| 1777248003 | 14.44° C | 87% | 1003.1 hPa | 0 mm | - | 49 W/m² | - |
| 1777247701 | 14.44° C | 87% | 1003.2 hPa | 0 mm | - | 77 W/m² | - |
| 1777247399 | 14.44° C | 86% | 1003.2 hPa | 0 mm | - | 46 W/m² | - |
| 1777247097 | 15° C | 85% | 1003.4 hPa | 0 mm | - | 36 W/m² | - |
| 1777246794 | 15° C | 86% | 1003.7 hPa | 0 mm | - | 78 W/m² | - |
| 1777246489 | 14.44° C | 86% | 1003.7 hPa | 0 mm | - | 111 W/m² | - |
| 1777246186 | 14.44° C | 86% | 1004 hPa | 0 mm | - | 86 W/m² | - |
| 1777245884 | 14.44° C | 85% | 1004 hPa | 0 mm | - | 57 W/m² | - |
| 1777245583 | 14.44° C | 85% | 1004 hPa | 0 mm | - | 56 W/m² | - |
| 1777245278 | 15° C | 85% | 1004.1 hPa | 0 mm | - | 54 W/m² | - |
| 1777244974 | 15° C | 85% | 1004 hPa | 0 mm | - | 54 W/m² | - |
| 1777244670 | 14.44° C | 85% | 1003.9 hPa | 0 mm | - | 86 W/m² | - |
| 1777244366 | 14.44° C | 86% | 1004.2 hPa | 0 mm | - | 103 W/m² | - |
| 1777244063 | 14.44° C | 85% | 1004.1 hPa | 0 mm | - | 104 W/m² | - |
| 1777243761 | 15° C | 84% | 1004.3 hPa | 0 mm | - | 96 W/m² | - |
| 1777243458 | 15° C | 84% | 1004.4 hPa | 0 mm | - | 119 W/m² | - |
| 1777243154 | 14.44° C | 84% | 1004.4 hPa | 0 mm | - | 121 W/m² | - |
| 1777242850 | 14.44° C | 83% | 1004.5 hPa | 0 mm | - | 125 W/m² | - |
| 1777242547 | 14.44° C | 84% | 1004.2 hPa | 0 mm | - | 134 W/m² | - |
* Rain latest hour (hover to see other rain measurements)
** Current wind speed in m/s (hover to see current wind gust speed)